Theta_e
293 292 292 292 292 293 293 293 293 293 292 292 291 290 290 292 292 294 295 296 297 299 302 304 305 307 308 307 306 305 304 304 320 314 301 299 300 305 319 321 322 322 323
290 291 291 291 291 291 292 292 292 291 290 290 290 289 289 290 290 291 292 293 295 296 297 298 300 301 302 304 305 304 303 304 307 312 310 301 301 299 296 303 309 310 307
288 289 289 290 290 290 291 291 291 290 288 288 288 288 288 288 287 288 290 291 293 295 296 297 298 298 299 300 304 304 303 300 305 310 310 298 305 296 294 293 297 305 302
287 288 288 289 289 290 291 290 289 287 287 287 286 285 284 283 285 286 288 289 290 291 293 294 294 295 299 299 301 304 303 302 300 307 312 311 302 305 293 290 291 292 299
286 286 287 288 289 289 288 288 286 285 285 285 285 284 283 284 285 286 286 287 289 289 290 292 293 295 297 299 300 302 303 303 301 303 307 310 299 304 304 293 291 289 291
284 285 287 288 288 288 287 285 284 284 284 284 283 283 282 283 283 284 284 286 287 289 289 290 291 292 294 295 299 302 303 303 303 303 306 306 307 305 307 302 302 298 289
283 284 285 286 286 285 285 284 283 282 282 282 283 283 284 284 284 284 285 286 286 287 288 290 290 290 292 293 294 296 298 302 304 304 304 306 309 313 311 309 294 297 286
282 283 285 285 284 284 283 282 281 281 282 282 282 284 284 284 285 286 286 286 286 287 289 289 290 290 291 292 293 294 296 299 302 302 303 304 307 312 311 310 297 288 286
281 283 284 284 283 282 282 281 280 281 281 281 283 283 284 284 285 286 286 286 287 288 289 289 289 290 290 291 293 294 296 298 301 303 302 303 305 310 312 310 307 303 290
281 283 283 283 283 282 281 281 281 280 281 281 283 283 283 284 285 286 286 286 287 288 289 289 289 289 289 290 291 291 292 293 295 299 302 304 304 309 311 308 309 308 306
280 282 282 282 282 281 280 280 280 280 280 281 282 282 282 283 285 284 285 285 286 286 287 289 288 288 288 289 290 290 292 294 296 298 301 303 307 308 309 306 303 304 305
280 281 281 281 280 279 279 278 279 279 280 281 281 281 282 282 282 282 283 284 284 285 286 287 287 288 289 290 289 290 291 292 293 294 297 302 306 305 304 304 301 302 302
279 281 280 279 279 278 278 278 278 279 280 280 280 280 280 280 280 281 282 283 284 285 285 286 286 286 287 288 290 290 289 291 292 293 294 298 302 299 301 301 297 295 288
278 278 278 278 280 279 276 277 277 278 279 279 279 278 278 279 280 281 282 283 284 285 285 285 286 287 287 287 287 288 288 287 289 290 293 294 297 298 295 294 291 288 287
278 276 278 276 279 279 277 274 275 276 278 277 276 276 277 278 279 281 281 283 283 284 285 285 285 286 286 287 287 287 287 288 288 289 291 292 292 292 295 292 289 289 287
273 273 275 274 279 277 275 272 272 273 277 275 275 276 277 277 278 280 280 281 282 283 284 285 285 285 286 289 290 289 288 288 288 287 286 287 288 291 292 293 293 292 288
272 274 277 273 279 271 272 269 270 272 275 275 275 276 277 277 278 279 280 280 281 282 283 283 284 285 286 291 291 290 287 287 286 286 287 286 287 289 289 290 290 289 291
273 274 274 271 277 269 267 267 269 270 271 274 274 278 278 278 278 278 279 279 281 281 282 282 283 283 286 288 288 286 285 284 284 285 285 285 285 285 285 283 282 282 282
274 274 273 272 266 266 265 264 268 269 270 273 276 279 279 278 277 277 279 280 281 281 281 282 282 283 284 286 285 284 282 282 281 282 284 284 284 285 285 281 280 280 281
269 273 268 264 264 268 263 267 266 271 271 272 275 277 279 279 278 278 279 281 281 281 281 280 282 283 283 286 285 283 281 280 280 282 283 284 284 285 284 280 279 278 279
272 264 268 273 270 264 266 268 267 268 269 271 273 273 275 275 276 277 279 280 281 281 280 280 279 282 283 284 285 284 280 280 279 279 280 282 284 284 283 281 278 277 277
272 276 275 273 269 266 272 270 271 269 269 272 272 273 274 275 276 276 277 278 279 278 278 278 278 278 282 284 285 284 283 282 278 278 280 281 284 283 283 280 280 278 275
278 273 276 275 273 271 275 276 273 271 271 270 269 271 274 276 276 276 277 277 277 277 276 276 276 276 277 279 283 283 282 282 279 280 282 282 282 281 280 279 277 273 272
277 275 274 274 275 274 275 275 273 272 267 267 269 271 273 274 275 276 276 276 275 275 274 274 274 275 275 275 276 276 276 277 277 278 276 276 275 274 269 269 269 269 269
276 275 275 276 276 274 273 272 272 270 269 268 269 270 271 271 273 274 275 276 275 277 273 272 273 273 275 278 278 276 274 274 274 270 271 269 268 267 266 265 264 266 267
275 275 276 276 275 273 273 272 270 269 268 269 270 269 270 269 270 272 274 282 282 283 282 282 280 279 281 282 282 281 280 279 276 268 268 267 267 266 265 264 263 262 263
Wind_Speed
4 1 3 2 1 1 5 6 7 9 8 7 8 8 9 8 8 7 11 12 11 13 12 10 10 8 8 9 10 10 11 11 13 8 2 1 0 3 12 12 12 15 16
1 3 5 4 4 6 6 6 7 12 11 8 8 8 9 8 9 9 11 12 13 12 12 12 11 12 10 13 12 12 10 10 11 10 10 7 4 4 3 4 10 10 5
2 4 6 4 4 6 8 9 11 14 12 13 9 8 9 8 9 8 8 9 11 11 12 12 11 12 12 12 13 13 14 12 12 12 7 5 10 4 2 5 3 10 7
2 3 5 10 8 9 7 8 12 14 12 14 11 14 11 12 9 10 9 10 13 14 13 14 14 14 11 14 13 13 14 11 12 9 13 7 9 8 3 2 3 4 8
4 6 5 6 8 7 6 8 10 13 13 13 13 11 14 10 10 10 13 13 11 14 14 14 14 14 12 14 16 15 15 12 11 14 10 11 1 4 6 4 7 3 5
5 5 5 7 7 5 6 8 11 12 14 13 15 15 16 15 13 13 11 11 10 10 13 14 14 15 15 15 13 12 18 15 14 12 14 10 11 12 10 5 11 15 4
6 6 7 7 8 9 10 10 12 14 14 14 15 15 16 15 17 15 11 13 10 10 11 14 13 12 15 15 15 15 14 12 11 14 12 12 11 12 14 11 4 7 2
5 6 7 6 6 9 10 11 13 14 14 15 15 14 16 12 13 13 12 13 13 12 13 13 14 15 16 16 16 13 14 14 12 16 14 10 13 9 10 13 8 2 2
5 6 5 4 6 7 9 12 13 14 14 14 14 15 16 16 15 17 16 13 16 13 14 15 16 16 16 17 13 9 11 15 14 13 14 15 14 11 9 9 8 13 8
6 6 4 5 4 6 7 10 12 14 14 14 13 13 16 17 16 15 16 18 17 16 18 16 15 15 16 16 15 14 14 13 11 10 14 15 14 13 9 8 9 10 12
7 6 6 5 6 7 8 10 11 13 13 12 13 15 15 16 15 16 15 16 17 16 17 14 15 15 15 16 15 16 12 11 12 15 18 16 17 11 12 8 6 8 5
7 4 5 6 6 7 8 9 10 11 12 13 13 14 15 16 16 16 17 17 16 15 14 14 13 13 14 14 14 14 13 14 13 13 10 16 10 12 13 11 10 9 5
6 5 4 5 6 7 8 9 10 12 12 13 13 14 14 14 15 16 16 15 15 14 12 13 14 14 14 13 12 9 8 6 7 7 10 10 13 10 9 10 10 8 4
6 5 4 5 5 6 6 8 11 10 12 12 12 12 13 14 14 14 15 14 14 13 10 9 12 13 12 12 10 9 9 7 7 11 10 9 12 14 13 11 11 9 9
5 6 4 5 3 7 7 7 8 10 11 11 11 12 12 13 13 13 14 13 12 12 10 7 6 9 10 9 11 13 12 10 11 12 11 10 9 13 16 12 12 13 8
7 7 5 4 3 4 6 7 8 10 10 11 10 11 12 12 13 13 13 13 12 12 10 9 6 3 7 15 20 14 10 11 9 7 4 4 8 15 15 14 19 17 15
7 7 6 4 4 4 5 6 7 8 9 10 10 10 11 12 12 12 12 13 13 12 12 13 12 10 9 5 12 12 4 5 5 6 8 8 6 12 14 18 19 14 13
8 7 5 4 4 3 4 5 5 5 6 8 10 9 11 11 12 11 12 12 11 11 10 12 13 12 11 19 21 22 13 12 11 10 9 11 11 12 15 16 15 12 10
7 6 5 5 3 4 4 3 4 5 5 7 10 10 10 11 11 11 11 11 10 10 11 10 13 14 14 22 22 19 14 15 15 13 12 13 13 17 22 16 15 16 12
5 7 6 3 2 4 2 1 4 4 5 7 8 8 7 8 10 11 10 8 8 8 9 13 14 16 16 26 24 18 12 16 12 13 14 23 17 21 20 15 16 15 10
7 4 4 6 6 4 3 0 3 3 4 6 6 6 6 5 6 6 7 9 8 9 11 13 14 15 16 20 28 26 13 11 11 11 10 10 25 24 21 18 12 14 14
6 8 7 7 5 6 5 3 3 4 3 4 4 5 6 5 5 5 7 8 8 10 11 11 11 11 13 21 26 28 25 20 13 12 9 11 23 22 22 17 26 25 17
9 6 8 6 5 6 5 4 4 2 2 3 4 4 5 6 6 6 8 6 8 7 8 8 9 9 8 9 23 24 24 22 14 10 19 23 23 23 20 21 22 12 8
10 7 8 7 7 7 7 6 4 3 3 1 2 2 3 4 6 5 5 6 7 6 6 6 7 6 7 7 7 7 8 15 12 16 11 16 17 18 13 9 10 6 7
7 9 11 10 11 7 8 7 6 5 3 3 3 1 1 2 2 2 2 3 1 4 2 3 3 5 7 7 11 9 6 6 10 7 5 5 5 7 7 8 7 6 6
6 9 12 9 9 8 8 8 8 8 5 3 3 2 1 2 2 2 4 11 10 13 13 12 10 5 12 14 15 17 16 14 9 6 5 5 5 6 4 5 5 5 5
Wind_Direction
159 84 16 349 310 312 331 324 317 320 319 317 316 312 306 298 291 285 285 282 278 273 269 265 265 254 242 231 222 227 242 274 212 181 96 68 125 235 197 195 199 199 198
38 341 341 341 337 313 303 305 316 328 329 317 307 296 300 291 293 289 280 274 269 265 265 263 261 259 260 252 236 222 225 231 256 209 184 176 197 234 249 219 184 183 180
343 317 327 309 312 336 338 328 326 324 321 311 305 302 292 288 290 281 279 276 277 274 268 265 260 257 253 250 240 225 216 229 227 255 201 161 202 120 168 243 256 189 181
306 280 310 333 337 325 320 326 321 318 316 312 305 302 293 293 287 283 280 279 276 272 266 261 259 260 255 246 244 235 232 219 228 223 256 245 127 182 175 245 194 255 202
280 306 318 299 308 306 318 311 313 313 310 310 303 297 292 287 290 285 283 272 264 263 263 265 264 258 253 252 246 241 230 229 229 223 231 224 125 139 168 171 193 222 226
292 304 304 304 295 301 308 316 320 311 311 306 300 291 286 288 288 285 282 276 272 267 255 255 256 259 256 254 258 248 235 227 226 224 227 236 214 185 192 176 187 206 197
304 322 318 306 322 320 326 329 324 313 310 304 297 296 291 285 280 279 275 275 269 264 256 251 247 249 257 254 249 248 247 242 220 216 222 230 253 234 214 194 147 181 141
293 287 268 290 299 315 321 321 317 309 309 306 300 298 296 291 286 280 278 278 277 268 259 252 252 251 247 251 247 241 241 240 227 220 226 233 236 246 229 209 154 113 134
283 269 298 304 305 306 316 322 313 306 305 305 304 307 304 300 293 292 288 283 281 269 262 252 249 248 248 250 256 248 236 229 227 223 217 222 228 226 226 220 187 190 180
307 287 306 305 294 306 316 309 307 306 307 309 311 309 308 305 299 294 289 286 283 277 272 250 244 242 245 246 247 252 244 239 238 236 231 222 226 219 207 201 211 208 213
291 303 314 303 299 305 313 315 318 315 314 315 314 313 312 308 303 299 292 289 286 280 280 245 242 239 239 238 234 240 249 241 231 227 231 237 223 212 198 184 170 200 204
279 288 290 300 306 308 322 321 319 320 320 316 315 319 314 314 312 305 300 297 289 281 271 256 236 234 237 237 239 241 239 231 235 238 257 228 215 194 178 180 174 179 175
279 267 293 295 304 304 325 320 325 323 321 317 322 322 318 316 312 310 308 305 298 289 272 254 236 229 227 228 231 238 248 231 243 249 236 233 209 188 181 182 167 155 117
259 253 280 277 294 324 309 316 324 324 319 320 324 322 322 318 313 314 314 317 315 302 287 254 238 229 220 219 223 224 223 229 240 251 244 229 199 182 167 158 148 139 127
235 237 243 263 307 331 316 319 320 323 322 319 323 321 320 319 317 323 324 324 328 322 314 300 252 228 220 220 216 219 218 226 234 245 236 211 179 170 170 155 155 136 134
245 235 236 260 312 315 310 319 321 323 322 314 319 321 327 326 329 331 333 331 341 338 345 356 352 299 221 219 213 207 207 216 211 189 139 129 148 148 147 145 151 148 140
242 219 215 223 274 273 287 307 309 316 320 314 320 328 336 337 335 333 344 349 354 351 1 12 18 22 11 134 200 184 133 125 120 137 132 111 107 116 110 104 99 98 124
236 223 198 222 259 240 279 291 306 326 322 322 322 339 344 337 335 338 357 349 357 7 7 17 29 31 47 70 90 88 84 77 68 68 81 92 93 99 105 97 85 76 65
212 202 185 184 208 255 255 300 342 333 328 346 338 340 348 340 337 346 353 358 4 14 18 21 32 43 51 62 73 79 77 72 66 60 66 81 85 92 98 94 94 83 78
184 180 194 175 195 252 222 10 328 329 337 332 325 325 339 346 348 341 346 352 4 12 28 32 34 44 54 58 65 70 73 72 66 65 66 76 86 91 94 103 104 101 105
199 167 179 210 209 188 199 248 288 312 285 302 313 325 331 332 329 337 349 351 14 31 36 41 35 37 48 58 63 65 67 72 69 64 61 66 81 87 91 94 100 110 112
207 199 201 223 218 199 186 194 260 255 298 319 333 339 336 346 344 354 352 3 15 29 34 39 42 33 44 60 68 70 71 74 78 73 69 76 86 94 99 97 107 106 102
215 197 204 214 210 206 204 198 217 204 22 10 345 350 352 3 359 16 10 16 18 29 30 38 37 32 28 37 57 72 79 81 82 86 91 91 94 93 87 91 92 84 87
212 188 191 209 221 198 204 202 170 157 125 108 335 335 27 15 12 16 29 27 25 28 25 35 44 43 40 40 34 48 52 65 74 88 83 85 85 82 84 74 63 68 81
185 187 199 207 215 186 206 192 173 162 166 199 240 239 138 90 74 32 63 49 27 65 62 22 16 37 49 54 70 74 67 80 89 93 76 66 64 73 65 62 56 56 71
178 196 209 205 206 193 200 203 172 161 168 202 247 253 303 12 35 36 31 57 70 70 74 63 57 47 65 73 82 84 74 64 63 46 56 56 51 71 78 79 76 58 72